Regional Weather Roundup
Issued by NWS

Home | Current Version | Previous Version | Text Only | Print | Product List | Glossary On
Versions: 1 2 3 4 5 6 7 8 9 10 11 12 13 14 15 16 17 18 19 20 21 22 23 24 25 26 27 28 29 30 31 32 33 34 35 36 37 38 39 40 41 42 43 44 45 46 47 48 49 50
000
ASUS43 KOAX 050410
RWRNE

WEATHER ROUNDUP FOR NEBRASKA
NATIONAL WEATHER SERVICE OMAHA NE
1100 PM CDT MON MAY 04 2015

NOTES: SATELLITE DATA IS BEING USED TO AUGMENT CLOUD COVER ABOVE
       12000 FEET.
       "FAIR" INDICATES FEW OR NO CLOUDS BELOW 12,000 FEET WITH NO
       SIGNIFICANT WEATHER AND/OR OBSTRUCTIONS TO VISIBILITY.

  * THESE STATIONS DO NOT REPORT WEATHER SUCH AS RAIN...SNOW OR FOG.

NEZ001>004-019>022-054>056-050500-
NEBRASKA PANHANDLE

CITY           SKY/WX    TMP DP  RH WIND       PRES   REMARKS
SCOTTSBLUFF    MOCLDY    50  40  68 SE9       30.11R
ALLIANCE       MOCLDY    49  38  65 SE10      30.12R
CHADRON        PTCLDY    44  41  89 CALM      30.11R
KIMBALL        CLOUDY    46  44  93 SE12      30.10F
SIDNEY         CLOUDY    47  41  80 E10       30.13S
$$

NEZ057>060-069>072-079>082-050500-
SOUTHWEST NEBRASKA

CITY           SKY/WX    TMP DP  RH WIND       PRES   REMARKS
NORTH PLATTE   CLOUDY    51  48  89 E9        30.11F
IMPERIAL       CLOUDY    49  45  86 E7        30.13R
LEXINGTON      CLOUDY    53  51  95 E8        30.11F FOG
MCCOOK         CLOUDY    52  51  97 E8        30.11R FOG
OGALLALA       CLOUDY    49  46  90 CALM      30.13R
$$

NEZ005>010-023>029-035>040-094-050500-
NORTH CENTRAL NEBRASKA

CITY           SKY/WX    TMP DP  RH WIND       PRES   REMARKS
VALENTINE      MOCLDY    54  36  50 S6        30.12S
AINSWORTH      MOCLDY    50  39  64 S5        30.14R
BROKEN BOW     CLOUDY    54  50  86 E8        30.11F
O`NEILL        MOCLDY    55  47  73 SE3       30.14R
ORD            CLOUDY    54  49  83 E6        30.11R
THEDFORD       CLOUDY    56  42  60 CALM      30.14S
$$

NEZ041-046>049-061>064-073>077-083>087-050500-
SOUTH CENTRAL NEBRASKA

CITY           SKY/WX    TMP DP  RH WIND       PRES   REMARKS
GRAND ISLAND   CLOUDY    54  53  97 NE8       30.11F FOG
AURORA         CLOUDY    56  56 100 NE9       30.10S FOG
HASTINGS       CLOUDY    55  54  96 NE6       30.10R FOG
HEBRON         CLOUDY    61  58  91 E5        30.07F FOG
HOLDREGE       CLOUDY    54  52  93 NE7       30.09F FOG
KEARNEY *      CLOUDY    54  52  94 NE10      30.10F
YORK           CLOUDY    57  57 100 NE8       30.10S FOG
$$

NEZ011>018-030>034-042>045-050500-
NORTHEAST NEBRASKA

CITY           SKY/WX    TMP DP  RH WIND       PRES   REMARKS
NORFOLK        CLOUDY    56  51  84 E3        30.13R
ALBION         CLOUDY    55  51  86 E6        30.12S
BLAIR          CLOUDY    57  54  89 NE8       30.09R
COLUMBUS *     CLOUDY    55  50  82 NE5       30.13R
FREMONT        CLOUDY    59  57  91 E5        30.10R
TEKAMAH        LGT RAIN  58  55  90 N7        30.10R
WAYNE          CLOUDY    56  51  83 E7        30.13R
$$

NEZ050>053-065>068-078-088>093-050500-
SOUTHEAST NEBRASKA

CITY           SKY/WX    TMP DP  RH WIND       PRES   REMARKS
LINCOLN        CLOUDY    60  58  92 CALM      30.10R FOG
OMAHA EPPLEY   CLOUDY    60  56  86 CALM      30.08R
BEATRICE       TSTM      63  62  96 CALM      30.09R
FALLS CITY     LGT RAIN  62  60  93 S10       30.08R
NEBRASKA CITY  LGT RAIN  63  63 100 S6        30.08R
PLATTSMOUTH    CLOUDY    62  59  91 CALM      30.08R FOG
$$

NEZ044-045-051>053-067-050500-
OMAHA AREA

CITY           SKY/WX    TMP DP  RH WIND       PRES   REMARKS
OMAHA EPPLEY   CLOUDY    60  56  86 CALM      30.08R
BLAIR          CLOUDY    57  54  89 NE8       30.09R
FREMONT        CLOUDY    59  57  91 E5        30.10R
MILLARD        CLOUDY    61  56  85 E3        30.08R
OFFUTT AFB     CLOUDY    61  57  88 NE8       30.07R
PLATTSMOUTH    CLOUDY    62  59  91 CALM      30.08R FOG
$$


USA.gov is the U.S. government's official web portal to all federal, state and local government web resources and services.